H1 CPF 2 NER 2022 8 20 9 232 01 glonass132 H2 1401201 9132 39620 2022 8 20 0 0 0 2022 8 23 23 45 0 900 1 1 0 0 0 1 H9 10 0 59811 0.00000 0 -6039371.263 8531532.724 23278481.092 10 0 59811 900.00000 0 -8503370.806 7086059.143 22995250.719 10 0 59811 1800.00000 0 -11014405.522 5860462.936 22266117.188 10 0 59811 2700.00000 0 -13504352.717 4875007.248 21105347.438 10 0 59811 3600.00000 0 -15903596.138 4137257.225 19535546.153 10 0 59811 4500.00000 0 -18143746.594 3641954.198 17587213.405 10 0 59811 5400.00000 0 -20160323.823 3371437.540 15298152.875 10 0 59811 6300.00000 0 -21895289.392 3296595.126 12712741.823 10 0 59811 7200.00000 0 -23299326.456 3378301.514 9881076.470 10 0 59811 8100.00000 0 -24333772.607 3569282.863 6858008.614 10 0 59811 9000.00000 0 -24972126.171 3816329.953 3702091.346 10 0 59811 9900.00000 0 -25201063.736 4062766.220 474453.547 10 0 59811 10800.00000 0 -25020926.800 4251067.060 -2762375.787 10 0 59811 11700.00000 0 -24445657.244 4325520.216 -5945671.297 10 0 59811 12600.00000 0 -23502184.117 4234815.204 -9013720.201 10 0 59811 13500.00000 0 -22229286.940 3934452.509 -11907013.457 10 0 59811 14400.00000 0 -20675982.459 3388870.542 -14569396.386 10 0 59811 15300.00000 0 -18899501.655 2573199.992 -16949156.600 10 0 59811 16200.00000 0 -16962940.838 1474570.506 -19000028.290 10 0 59811 17100.00000 0 -14932684.309 92913.139 -20682093.497 10 0 59811 18000.00000 0 -12875705.701 -1558777.034 -21962562.716 10 0 59811 18900.00000 0 -10856860.220 -3454731.384 -22816419.559 10 0 59811 19800.00000 0 -8936280.501 -5557241.459 -23226916.616 10 0 59811 20700.00000 0 -7166984.753 -7818003.366 -23185912.308 10 0 59811 21600.00000 0 -5592797.062 -10179918.817 -22694041.538 10 0 59811 22500.00000 0 -4246666.888 -12579279.456 -21760715.908 10 0 59811 23400.00000 0 -3149458.311 -14948244.641 -20403952.550 10 0 59811 24300.00000 0 -2309259.922 -17217510.158 -18650033.865 10 0 59811 25200.00000 0 -1721244.381 -19319056.778 -16533003.813 10 0 59811 26100.00000 0 -1368083.579 -21188863.601 -14094009.800 10 0 59811 27000.00000 0 -1220901.586 -22769472.147 -11380502.409 10 0 59811 27900.00000 0 -1240724.640 -24012292.997 -8445308.367 10 0 59811 28800.00000 0 -1380366.047 -24879557.288 -5345595.076 10 0 59811 29700.00000 0 -1586665.060 -25345830.287 -2141747.487 10 0 59811 30600.00000 0 -1802983.438 -25399022.842 1103819.866 10 0 59811 31500.00000 0 -1971852.271 -25040857.829 4327891.126 10 0 59811 32400.00000 0 -2037655.139 -24286772.219 7467692.447 10 0 59811 33300.00000 0 -1949232.221 -23165259.440 10462124.753 10 0 59811 34200.00000 0 -1662293.593 -21716680.751 13252960.625 10 0 59811 35100.00000 0 -1141538.382 -19991596.847 15785981.162 10 0 59811 36000.00000 0 -362389.362 -18048691.211 18012030.171 10 0 59811 36900.00000 0 687730.644 -15952373.618 19887965.105 10 0 59811 37800.00000 0 2008634.507 -13770165.336 21377486.732 10 0 59811 38700.00000 0 3587150.710 -11569975.990 22451832.271 10 0 59811 39600.00000 0 5397456.441 -9417386.099 23090319.662 10 0 59811 40500.00000 0 7401949.669 -7373048.207 23280733.810 10 0 59811 41400.00000 0 9552623.674 -5490313.927 23019548.685 10 0 59811 42300.00000 0 11792886.667 -3813184.335 22311982.266 10 0 59811 43200.00000 0 14059750.981 -2374667.156 21171884.363 10 0 59811 44100.00000 0 16286301.305 -1195607.096 19621460.247 10 0 59811 45000.00000 0 18404339.954 -284035.959 17690835.873 10 0 59811 45900.00000 0 20347100.136 364932.421 15417473.188 10 0 59811 46800.00000 0 22051915.401 768659.810 12845446.570 10 0 59811 47700.00000 0 23462735.110 956013.723 10024593.941 10 0 59811 48600.00000 0 24532382.181 965911.785 7009558.289 10 0 59811 49500.00000 0 25224459.718 845442.033 3858737.375 10 0 59811 50400.00000 0 25514827.492 647638.453 633161.220 10 0 59811 51300.00000 0 25392586.882 429005.387 -2604681.623 10 0 59811 52200.00000 0 24860533.047 246894.994 -5792046.961 10 0 59811 53100.00000 0 23935055.085 156848.127 -8867144.175 10 0 59811 54000.00000 0 22645487.766 210010.767 -11770328.774 10 0 59811 54900.00000 0 21032941.107 450735.092 -14445255.541 10 0 59811 55800.00000 0 19148655.839 914466.830 -16839970.039 10 0 59811 56700.00000 0 17051952.469 1626008.729 -18907917.519 10 0 59811 57600.00000 0 14807858.601 2598234.515 -20608849.706 10 0 59811 58500.00000 0 12484512.691 3831309.020 -21909611.752 10 0 59811 59400.00000 0 10150451.784 5312449.165 -22784793.920 10 0 59811 60300.00000 0 7871895.719 7016238.027 -23217235.029 10 0 59811 61200.00000 0 5710140.707 8905481.012 -23198367.300 10 0 59811 62100.00000 0 3719170.741 10932570.490 -22728395.248 10 0 59811 63000.00000 0 1943586.410 13041303.781 -21816304.270 10 0 59811 63900.00000 0 416937.745 15169079.997 -20479697.781 10 0 59811 64800.00000 0 -839469.165 17249385.027 -18744465.075 10 0 59811 65700.00000 0 -1817241.785 19214461.326 -16644285.359 10 0 59811 66600.00000 0 -2521018.893 20998050.731 -14219976.857 10 0 59811 67500.00000 0 -2968031.900 22538095.051 -11518703.094 10 0 59811 68400.00000 0 -3187128.734 23779280.329 -8593051.599 10 0 59811 69300.00000 0 -3217302.340 24675316.939 -5500003.214 10 0 59811 70200.00000 0 -3105787.175 25190858.621 -2299812.710 10 0 59811 71100.00000 0 -2905805.712 25302978.807 945176.573 10 0 59811 72000.00000 0 -2674062.058 25002141.383 4171759.596 10 0 59811 72900.00000 0 -2468090.684 24292624.769 7317112.762 10 0 59811 73800.00000 0 -2343574.374 23192381.564 10320027.729 10 0 59811 74700.00000 0 -2351746.609 21732340.280 13122110.552 10 0 59811 75600.00000 0 -2536989.676 19955179.392 15668921.938 10 0 59811 76500.00000 0 -2934731.045 17913626.315 17911035.911 10 0 59811 77400.00000 0 -3569727.403 15668353.846 19804996.166 10 0 59811 78300.00000 0 -4454808.908 13285563.156 21314152.013 10 0 59811 79200.00000 0 -5590136.414 10834355.123 22409358.461 10 0 59811 80100.00000 0 -6963002.541 8384000.043 23069528.005 10 0 59811 81000.00000 0 -8548184.543 6001219.327 23282024.760 10 0 59811 81900.00000 0 -10308833.903 3747591.522 23042894.696 10 0 59811 82800.00000 0 -12197865.209 1677189.395 22356928.810 10 0 59811 83700.00000 0 -14159786.400 -165455.434 21237559.096 10 0 59811 84600.00000 0 -16132894.356 -1746977.684 19706590.125 10 0 59811 85500.00000 0 -18051744.799 -3046327.925 17793771.882 10 0 59812 0.00000 0 -19849794.220 -4055400.660 15536222.429 10 0 59812 900.00000 0 -21462105.551 -4779117.286 12977710.037 10 0 59812 1800.00000 0 -22828003.289 -5234960.891 10167811.367 10 0 59812 2700.00000 0 -23893571.425 -5451985.512 7160957.205 10 0 59812 3600.00000 0 -24613888.199 -5469340.951 4015386.461 10 0 59812 4500.00000 0 -24954905.725 -5334376.218 792026.747 10 0 59812 5400.00000 0 -24894896.042 -5100401.488 -2446677.317 10 0 59812 6300.00000 0 -24425402.906 -4824202.790 -5637966.094 10 0 59812 7200.00000 0 -23551659.121 -4563414.002 -8719974.361 10 0 59812 8100.00000 0 -22292451.183 -4373856.799 -11632925.221 10 0 59812 9000.00000 0 -20679435.911 -4306960.755 -14320285.713 10 0 59812 9900.00000 0 -18755936.526 -4407372.494 -16729861.853 10 0 59812 10800.00000 0 -16575267.182 -4710855.234 -18814812.062 10 0 59812 11700.00000 0 -14198654.658 -5242568.021 -20534559.396 10 0 59812 12600.00000 0 -11692842.709 -6015798.271 -21855584.764 10 0 59812 13500.00000 0 -9127477.885 -7031202.520 -22752085.600 10 0 59812 14400.00000 0 -6572384.803 -8276589.084 -23206486.859 10 0 59812 15300.00000 0 -4094843.723 -9727253.770 -23209793.892 10 0 59812 16200.00000 0 -1756983.373 -11346856.605 -22761779.637 10 0 59812 17100.00000 0 386602.655 -13088804.820 -21871001.653 10 0 59812 18000.00000 0 2290916.542 -14898085.754 -20554647.665 10 0 59812 18900.00000 0 3922207.902 -16713474.212 -18838211.611 10 0 59812 19800.00000 0 5259147.440 -18470022.559 -16755005.507 10 0 59812 20700.00000 0 6293473.398 -20101729.363 -14345515.846 10 0 59812 21600.00000 0 7030083.954 -21544274.360 -11656616.488 10 0 59812 22500.00000 0 7486572.189 -22737704.164 -8740653.138 10 0 59812 23400.00000 0 7692223.909 -23628954.746 -5654417.491 10 0 59812 24300.00000 0 7686521.810 -24174103.368 -2458031.616 10 0 59812 25200.00000 0 7517220.579 -24340253.963 786234.767 10 0 59812 26100.00000 0 7238076.054 -24106975.480 4015189.744 10 0 59812 27000.00000 0 6906326.414 -23467231.930 7165962.140 10 0 59812 27900.00000 0 6580033.919 -22427764.610 10177236.376 10 0 59812 28800.00000 0 6315401.488 -21008910.554 12990453.847 10 0 59812 29700.00000 0 6164179.151 -19243865.348 15550956.556 10 0 59812 30600.00000 0 6171271.190 -17177422.021 17809050.219 10 0 59812 31500.00000 0 6372645.689 -14864239.890 19720966.020 10 0 59812 32400.00000 0 6793634.954 -12366716.727 21249702.787 10 0 59812 33300.00000 0 7447698.254 -9752553.858 22365734.017 10 0 59812 34200.00000 0 8335698.490 -7092116.249 23047567.161 10 0 59812 35100.00000 0 9445722.585 -4455697.435 23282145.660 10 0 59812 36000.00000 0 10753452.540 -1910802.517 23065087.339 10 0 59812 36900.00000 0 12223071.111 480438.866 22400755.818 10 0 59812 37800.00000 0 13808663.917 2663623.653 21302164.683 10 0 59812 38700.00000 0 15456059.421 4594094.804 19790717.039 10 0 59812 39600.00000 0 17105030.115 6238547.156 17895785.976 10 0 59812 40500.00000 0 18691763.545 7576155.124 15654144.161 10 0 59812 41400.00000 0 20151500.705 8599177.385 13109253.344 10 0 59812 42300.00000 0 21421232.336 9313015.141 10310427.130 10 0 59812 43200.00000 0 22442341.301 9735723.168 7311882.499 10 0 59812 44100.00000 0 23163081.222 9896995.301 4171697.686 10 0 59812 45000.00000 0 23540788.157 9836667.674 950695.865 10 0 59812 45900.00000 0 23543732.954 9602803.057 -2288724.507 10 0 59812 46800.00000 0 23152536.610 9249436.972 -5483790.704 10 0 59812 47700.00000 0 22361088.891 8834080.388 -8572565.334 10 0 59812 48600.00000 0 21176930.944 8415084.060 -11495141.532 10 0 59812 49500.00000 0 19621084.771 8048975.413 -14194800.976 10 0 59812 50400.00000 0 17727335.383 7787880.200 -16619112.407 10 0 59812 51300.00000 0 15540994.143 7677137.762 -18720949.555 10 0 59812 52200.00000 0 13117193.330 7753210.841 -20459408.822 10 0 59812 53100.00000 0 10518781.619 8041978.700 -21800608.743 10 0 59812 54000.00000 0 7813906.732 8557486.532 -22718355.642 10 0 59812 54900.00000 0 5073384.686 9301205.146 -23194662.160 10 0 59812 55800.00000 0 2367964.221 10261833.692 -23220108.091 10 0 59812 56700.00000 0 -234400.495 11415655.489 -22794035.818 10 0 59812 57600.00000 0 -2671155.843 12727433.811 -21924575.716 10 0 59812 58500.00000 0 -4887525.019 14151811.633 -20628500.032 10 0 59812 59400.00000 0 -6838555.630 15635157.917 -18930907.101 10 0 59812 60300.00000 0 -8490753.096 17117783.875 -16864741.023 10 0 59812 61200.00000 0 -9823231.481 18536436.475 -14470155.359 10 0 59812 62100.00000 0 -10828333.671 19826964.322 -11793732.674 10 0 59812 63000.00000 0 -11511695.187 20927043.188 -8887574.831 10 0 59812 63900.00000 0 -11891749.501 21778845.407 -5808282.044 10 0 59812 64800.00000 0 -11998696.687 22331539.472 -2615841.058 10 0 59812 65700.00000 0 -11872980.216 22543513.061 627554.872 10 0 59812 66600.00000 0 -11563337.829 22384224.494 3858729.963 10 0 59812 67500.00000 0 -11124510.736 21835603.456 7014768.599 10 0 59812 68400.00000 0 -10614709.967 20892941.250 10034251.159 10 0 59812 69300.00000 0 -10092948.891 19565232.717 12858457.577 10 0 59812 70200.00000 0 -9616356.349 17874955.590 15432514.293 10 0 59812 71100.00000 0 -9237585.269 15857296.879 17706461.735 10 0 59812 72000.00000 0 -9002426.987 13558859.484 19636221.408 10 0 59812 72900.00000 0 -8947732.271 11035903.878 21184444.234 10 0 59812 73800.00000 0 -9099726.501 8352198.950 22321224.458 10 0 59812 74700.00000 0 -9472789.402 5576572.163 23024666.353 10 0 59812 75600.00000 0 -10068749.815 2780261.049 23281294.105 10 0 59812 76500.00000 0 -10876724.245 34175.771 23086298.301 10 0 59812 77400.00000 0 -11873505.104 -2593814.286 22443615.540 10 0 59812 78300.00000 0 -13024481.678 -5041458.615 21365840.767 10 0 59812 79200.00000 0 -14285054.895 -7254463.027 19873974.790 10 0 59812 80100.00000 0 -15602486.528 -9188491.272 17997012.387 10 0 59812 81000.00000 0 -16918105.689 -10810749.774 15771379.082 10 0 59812 81900.00000 0 -18169780.749 -12101091.653 13240227.251 10 0 59812 82800.00000 0 -19294553.853 -13052595.892 10452604.782 10 0 59812 83700.00000 0 -20231328.419 -13671599.229 7462511.692 10 0 59812 84600.00000 0 -20923497.735 -13977180.764 4327862.167 10 0 59812 85500.00000 0 -21321404.993 -14000121.811 1109371.438 10 0 59813 0.00000 0 -21384531.883 -13781385.277 -2130611.458 10 0 59813 900.00000 0 -21083323.907 -13370178.548 -5329304.842 10 0 59813 1800.00000 0 -20400575.433 -12821681.662 -8424702.341 10 0 59813 2700.00000 0 -19332315.749 -12194535.828 -11356770.493 10 0 59813 3600.00000 0 -17888157.675 -11548198.055 -14068608.803 10 0 59813 4500.00000 0 -16091092.810 -10940272.997 -16507551.667 10 0 59813 5400.00000 0 -13976740.304 -10423934.351 -18626190.718 10 0 59813 6300.00000 0 -11592078.696 -10045544.487 -20383297.826 10 0 59813 7200.00000 0 -8993712.019 -9842572.905 -21744630.747 10 0 59813 8100.00000 0 -6245740.646 -9841901.778 -22683605.659 10 0 59813 9000.00000 0 -3417323.978 -10058590.814 -23181823.211 10 0 59813 9900.00000 0 -580035.139 -10495154.585 -23229437.315 10 0 59813 10800.00000 0 2194883.338 -11141384.085 -22825358.885 10 0 59813 11700.00000 0 4839249.401 -11974721.527 -21977289.680 10 0 59813 12600.00000 0 7290543.637 -12961174.026 -20701584.620 10 0 59813 13500.00000 0 9494275.507 -14056729.026 -19022944.239 10 0 59813 14400.00000 0 11406014.931 -15209212.894 -16973942.245 10 0 59813 15300.00000 0 12993004.185 -16360514.962 -14594396.578 10 0 59813 16200.00000 0 14235282.628 -17449083.448 -11930595.636 10 0 59813 17100.00000 0 15126277.203 -18412587.613 -9034394.449 10 0 59813 18000.00000 0 15672834.209 -19190633.015 -5962198.641 10 0 59813 18900.00000 0 15894691.733 -19727414.075 -2773856.520 10 0 59813 19800.00000 0 15823416.035 -19974190.556 468518.222 10 0 59813 20700.00000 0 15500848.154 -19891481.945 3701768.914 10 0 59813 21600.00000 0 14977128.076 -19450885.781 6862938.283 10 0 59813 22500.00000 0 14308381.806 -18636442.136 9890505.200 10 0 59813 23400.00000 0 13554170.989 -17445486.013 12725590.361 10 0 59813 24300.00000 0 12774814.597 -15888951.482 15313106.510 10 0 59813 25200.00000 0 12028697.214 -13991114.764 17602830.286 10 0 59813 26100.00000 0 11369678.502 -11788787.443 19550374.626 10 0 59813 27000.00000 0 10844713.564 -9329994.084 21118043.274 10 0 59813 27900.00000 0 10491784.360 -6672190.006 22275551.574 10 0 59813 28800.00000 0 10338228.663 -3880094.049 23000600.618 10 0 59813 29700.00000 0 10399535.905 -1023226.664 23279294.995 10 0 59813 30600.00000 0 10678659.298 1826744.562 23106397.408 10 0 59813 31500.00000 0 11165871.928 4598742.259 22485416.532 10 0 59813 32400.00000 0 11839171.721 7224987.022 21428527.534 10 0 59813 33300.00000 0 12665217.456 9643564.670 19956327.617 10 0 59813 34200.00000 0 13600756.029 11800748.136 18097431.795 10 0 59813 35100.00000 0 14594480.935 13652979.521 15887916.878 10 0 59813 36000.00000 0 15589244.215 15168431.920 13370624.189 10 0 59813 36900.00000 0 16524529.499 16328087.796 10594334.125 10 0 59813 37800.00000 0 17339082.956 17126290.691 7612827.848 10 0 59813 38700.00000 0 17973592.378 17570748.635 4483853.509 10 0 59813 39600.00000 0 18373302.426 17681990.103 1268016.311 10 0 59813 40500.00000 0 18490456.579 17492296.073 -1972386.859 10 0 59813 41400.00000 0 18286463.264 17044153.305 -5174566.388 10 0 59813 42300.00000 0 17733694.907 16388293.838 -8276449.666 10 0 59813 43200.00000 0 16816843.700 15581403.007 -11217878.722 10 0 59813 44100.00000 0 15533776.082 14683592.001 -13941772.867 10 0 59813 45000.00000 0 13895848.710 13755741.025 -16395234.000 10 0 59813 45900.00000 0 11927670.939 12856824.517 -18530573.360 10 0 59813 46800.00000 0 9666321.770 12041330.795 -20306239.864 10 0 59813 47700.00000 0 7160051.970 11356884.731 -21687631.944 10 0 59813 48600.00000 0 4466523.479 10842173.655 -22647776.976 10 0 59813 49500.00000 0 1650657.517 10525264.240 -23167864.811 10 0 59813 50400.00000 0 -1217820.612 10422381.877 -23237624.497 10 0 59813 51300.00000 0 -4067039.219 10537204.824 -22855536.239 10 0 59813 52200.00000 0 -6825730.934 10860703.901 -22028873.606 10 0 59813 53100.00000 0 -9425962.461 11371535.593 -20773574.222 10 0 59813 54000.00000 0 -11805730.063 12036973.086 -19113940.415 10 0 59813 54900.00000 0 -13911312.603 12814336.850 -17082174.663 10 0 59813 55800.00000 0 -15699283.677 13652865.044 -14717758.039 10 0 59813 56700.00000 0 -17138098.520 14495944.946 -12066683.175 10 0 59813 57600.00000 0 -18209189.066 15283610.958 -9180556.376 10 0 59813 58500.00000 0 -18907521.216 15955202.872 -6115586.570 10 0 59813 59400.00000 0 -19241591.252 16452070.950 -2931481.329 10 0 59813 60300.00000 0 -19232862.315 16720212.032 309727.645 10 0 59813 61200.00000 0 -18914665.749 16712723.699 3544905.364 10 0 59813 62100.00000 0 -18330615.200 16391971.244 6711055.585 10 0 59813 63000.00000 0 -17532602.109 15731374.597 9746558.458 10 0 59813 63900.00000 0 -16578459.081 14716738.764 12592378.293 10 0 59813 64800.00000 0 -15529391.584 13347071.045 15193217.024 10 0 59813 65700.00000 0 -14447287.847 11634850.342 17498590.337 10 0 59813 66600.00000 0 -13392021.578 9605737.297 19463805.320 10 0 59813 67500.00000 0 -12418861.756 7297737.686 21050821.071 10 0 59813 68400.00000 0 -11576098.581 4759854.379 22228976.270 10 0 59813 69300.00000 0 -10902984.919 2050284.529 22975570.721 10 0 59813 70200.00000 0 -10428078.760 -765762.767 23276290.888 10 0 59813 71100.00000 0 -10168054.940 -3618537.734 23125472.606 10 0 59813 72000.00000 0 -10127034.502 -6436407.819 22526197.129 10 0 59813 72900.00000 0 -10296458.295 -9148592.840 21490219.838 10 0 59813 73800.00000 0 -10655508.778 -11687865.101 20037733.780 10 0 59813 74700.00000 0 -11172061.289 -13993103.880 18196973.136 10 0 59813 75600.00000 0 -11804124.157 -16011600.005 16003664.444 10 0 59813 76500.00000 0 -12501706.934 -17701016.565 13500335.975 10 0 59813 77400.00000 0 -13209038.354 -19030925.865 10735498.250 10 0 59813 78300.00000 0 -13867041.153 -19983860.278 7762710.890 10 0 59813 79200.00000 0 -14415960.236 -20555834.479 4639553.087 10 0 59813 80100.00000 0 -14798034.148 -20756318.277 1426516.925 10 0 59813 81000.00000 0 -14960097.938 -20607661.911 -1814155.790 10 0 59813 81900.00000 0 -14856008.060 -20143998.270 -5019671.370 10 0 59813 82800.00000 0 -14448787.212 -19409668.132 -8127894.016 10 0 59813 83700.00000 0 -13712398.410 -18457234.381 -11078544.571 10 0 59813 84600.00000 0 -12633072.802 -17345168.244 -13814365.415 10 0 59813 85500.00000 0 -11210134.214 -16135304.338 -16282229.068 10 0 59814 0.00000 0 -9456284.268 -14890171.112 -18434169.067 10 0 59814 900.00000 0 -7397333.180 -13670307.798 -20228314.281 10 0 59814 1800.00000 0 -5071387.795 -12531682.009 -21629705.660 10 0 59814 2700.00000 0 -2527525.355 -11523314.157 -22610983.282 10 0 59814 3600.00000 0 175991.548 -10685210.259 -23152927.106 10 0 59814 4500.00000 0 2973887.285 -10046689.635 -23244841.602 10 0 59814 5400.00000 0 5796343.889 -9625178.431 -22884775.963 10 0 59814 6300.00000 0 8571668.647 -9425520.331 -22079574.744 10 0 59814 7200.00000 0 11229048.356 -9439834.250 -20844756.969 10 0 59814 8100.00000 0 13701276.053 -9647925.747 -19204225.048 10 0 59814 9000.00000 0 15927336.693 -10018235.468 -17189808.141 10 0 59814 9900.00000 0 17854743.576 -10509285.059 -14840648.020 10 0 59814 10800.00000 0 19441527.580 -11071559.611 -12202438.798 10 0 59814 11700.00000 0 20657795.515 -11649746.836 -9326534.993 10 0 59814 12600.00000 0 21486791.964 -12185237.600 -6268945.526 10 0 59814 13500.00000 0 21925420.007 -12618780.944 -3089233.743 10 0 59814 14400.00000 0 21984199.274 -12893179.863 150654.220 10 0 59814 15300.00000 0 21686663.829 -12955912.151 3387608.591 10 0 59814 16200.00000 0 21068226.413 -12761563.821 6558597.532 10 0 59814 17100.00000 0 20174558.442 -12273970.669 9601905.562 10 0 59814 18000.00000 0 19059555.760 -11467976.249 12458343.333 10 0 59814 18900.00000 0 17782977.701 -10330731.132 15072404.266 10 0 59814 19800.00000 0 16407860.549 -8862478.117 17393344.922 10 0 59814 20700.00000 0 14997815.649 -7076790.170 19376167.913 10 0 59814 21600.00000 0 13614326.683 -5000251.121 20982488.589 10 0 59814 22500.00000 0 12314159.967 -2671592.687 22181269.448 10 0 59814 23400.00000 0 11146996.233 -140324.161 22949409.061 10 0 59814 24300.00000 0 10153382.347 2535087.959 23272175.449 10 0 59814 25200.00000 0 9363087.500 5289414.663 23143476.878 10 0 59814 26100.00000 0 8793931.108 8053142.519 22565966.154 10 0 59814 27000.00000 0 8451129.731 10755132.891 21550977.539 10 0 59814 27900.00000 0 8327188.612 13325352.962 20118298.337 10 0 59814 28800.00000 0 8402340.851 15697566.380 18295780.088 10 0 59814 29700.00000 0 8645514.576 17811873.366 16118797.077 10 0 59814 30600.00000 0 9015786.676 19616996.336 13629562.401 10 0 59814 31500.00000 0 9464261.677 21072217.501 10876314.476 10 0 59814 32400.00000 0 9936296.701 22148889.271 7912389.061 10 0 59814 33300.00000 0 10373979.160 22831455.740 4795194.000 10 0 59814 34200.00000 0 10718753.283 23117943.555 1585105.825 10 0 59814 35100.00000 0 10914085.271 23019902.347 -1655691.167 10 0 59814 36000.00000 0 10908055.092 22561797.547 -4864401.601 10 0 59814 36900.00000 0 10655765.817 21779881.072 -7978828.757 10 0 59814 37800.00000 0 10121468.747 20720587.017 -10938574.413 10 0 59814 38700.00000 0 9280314.185 19438519.222 -13686205.941 10 0 59814 39600.00000 0 8119653.199 17994114.597 -16168368.205 10 0 59814 40500.00000 0 6639834.113 16451079.674 -18336818.911 10 0 59814 41400.00000 0 4854458.459 14873707.309 -20149367.445 10 0 59814 42300.00000 0 2790083.555 13324185.643 -21570698.861 10 0 59814 43200.00000 0 485381.805 11860011.824 -22573066.959 10 0 59814 44100.00000 0 -2010210.496 10531618.738 -23136842.642 10 0 59814 45000.00000 0 -4638300.655 9380314.335 -23250906.437 10 0 59814 45900.00000 0 -7333729.995 8436620.173 -22912876.887 10 0 59814 46800.00000 0 -10027057.610 7719079.235 -22129169.553 10 0 59814 47700.00000 0 -12647235.051 7233583.566 -20914884.491 10 0 59814 48600.00000 0 -15124361.274 6973250.464 -19293523.408 10 0 59814 49500.00000 0 -17392403.229 6918852.796 -17296540.961 10 0 59814 50400.00000 0 -19391768.331 7039785.624 -14962738.077 10 0 59814 51300.00000 0 -21071620.886 7295528.270 -12337508.513 10 0 59814 52200.00000 0 -22391845.000 7637539.781 -9471952.963 10 0 59814 53100.00000 0 -23324570.999 8011506.923 -6421878.158 10 0 59814 54000.00000 0 -23855200.998 8359848.511 -3246700.938 10 0 59814 54900.00000 0 -23982890.351 8624368.629 -8279.519 10 0 59814 55800.00000 0 -23720465.032 8748944.809 3230303.956 10 0 59814 56700.00000 0 -23093779.179 8682135.599 6405984.547 10 0 59814 57600.00000 0 -22140541.007 8379595.523 9456953.706 10 0 59814 58500.00000 0 -20908658.007 7806193.859 12323871.040 10 0 59814 59400.00000 0 -19454172.759 6937746.554 14951024.069 10 0 59814 60300.00000 0 -17838877.858 5762287.426 17287412.802 10 0 59814 61200.00000 0 -16127711.653 4280824.690 19287737.799 10 0 59814 62100.00000 0 -14386045.264 2507550.894 20913272.877 10 0 59814 63000.00000 0 -12676975.193 469497.476 22132606.266 10 0 59814 63900.00000 0 -11058734.998 -1794351.333 22922236.859 10 0 59814 64800.00000 0 -9582333.711 -4234448.152 23267015.370 10 0 59814 65700.00000 0 -8289518.595 -6792517.713 23160423.214 10 0 59814 66600.00000 0 -7211145.840 -9403761.485 22604685.014 10 0 59814 67500.00000 0 -6366025.371 -11999340.542 21610713.739 10 0 59814 68400.00000 0 -5760286.102 -14509034.309 20197890.330 10 0 59814 69300.00000 0 -5387286.265 -16863965.751 18393682.659 10 0 59814 70200.00000 0 -5228070.894 -18999281.066 16233111.324 10 0 59814 71100.00000 0 -5252355.945 -20856673.930 13758072.461 10 0 59814 72000.00000 0 -5419996.857 -22386650.600 11016530.280 10 0 59814 72900.00000 0 -5682879.353 -23550442.902 8061594.323 10 0 59814 73800.00000 0 -5987152.823 -24321490.501 4950498.530 10 0 59814 74700.00000 0 -6275712.423 -24686431.387 1743501.184 10 0 59814 75600.00000 0 -6490825.597 -24645559.829 -1497273.739 10 0 59814 76500.00000 0 -6576792.606 -24212732.878 -4709032.079 10 0 59814 77400.00000 0 -6482529.084 -23414729.280 -7829519.159 10 0 59814 78300.00000 0 -6163961.663 -22290087.372 -10798220.710 10 0 59814 79200.00000 0 -5586135.310 -20887470.096 -13557532.115 10 0 59814 80100.00000 0 -4724942.831 -19263625.005 -16053873.527 10 0 59814 81000.00000 0 -3568402.564 -17481023.987 -18238729.444 10 0 59814 81900.00000 0 -2117428.924 -15605280.783 -20069592.687 10 0 59814 82800.00000 0 -386061.498 -13702453.809 -21510794.384 10 0 59814 83700.00000 0 1598859.127 -11836346.597 -22534203.769 10 0 59814 84600.00000 0 3798557.633 -10065918.380 -23119783.908 10 0 59814 85500.00000 0 6163698.441 -8442913.041 -23255992.056 99